Torna al catalogo

SCOUT X-4 DEB

AttivoPO
NORAD 2986·DEBRIS·🇺🇸 United States

Lanciato Jun 4, 1964 da Vandenberg Space Force Base

Loading…

Prossimi Passaggi (prossime 24 ore)

TLE

AggiornatoSource: Space-Track

Epoca: Sep 14, 2026, 14:07 UTC

1 02986U 64026E   26257.58832292  .00000189  00000-0  10820-3 0  9996
2 02986  90.4840 197.1356 0044085 303.5595  56.1381 14.06559163187038

Traccia SCOUT X-4 DEB in tempo reale con AllMySat

Download on the App Store